When you browse on this site, cookies collect data to enhance your experience and personalize the content and advertising you see.
Visit our Privacy Policy to learn more. By continuing to use the site, you agree to this use of cookies and data.
  • In Romania
  • List of Countries
  • For 7 days
  • Water Temperature
  • Weather Map
  • Weather Widgets
  • user-avatar
    Login

    Hourly Weather Sochaczew

    Today, 24 August, Saturday

    Time Temperature Precipitation Wind Pressure Humidity
    00:00 +17°C° 0 mm 2 mps 762 mmHg 72%
    01:00 +17°C° 0 mm 2 mps 762 mmHg 75%
    02:00 +16°C° 0 mm 2 mps 762 mmHg 77%
    03:00 +16°C° 0 mm 2 mps 762 mmHg 79%
    04:00 +16°C° 0 mm 2 mps 762 mmHg 80%
    05:00 +17°C° 0 mm 2 mps 762 mmHg 76%
    06:00 +18°C° 0 mm 2 mps 762 mmHg 72%
    07:00 +19°C° 0 mm 2 mps 762 mmHg 67%
    08:00 +21°C° 0 mm 2 mps 762 mmHg 61%
    09:00 +24°C° 0 mm 2 mps 762 mmHg 55%
    10:00 +25°C° 0 mm 3 mps 762 mmHg 49%
    11:00 +26°C° 0 mm 3 mps 762 mmHg 46%
    12:00 +27°C° 0 mm 3 mps 761 mmHg 43%
    13:00 +28°C° 0 mm 3 mps 761 mmHg 39%
    14:00 +28°C° 0 mm 3 mps 761 mmHg 40%
    15:00 +27°C° 0 mm 4 mps 761 mmHg 41%
    16:00 +27°C° 0 mm 4 mps 760 mmHg 41%
    17:00 +25°C° 0 mm 3 mps 760 mmHg 47%
    18:00 +22°C° 0 mm 3 mps 760 mmHg 52%
    19:00 +21°C° 0 mm 3 mps 760 mmHg 57%
    20:00 +20°C° 0 mm 3 mps 761 mmHg 58%
    21:00 +19°C° 0 mm 3 mps 761 mmHg 60%
    22:00 +18°C° 0 mm 3 mps 761 mmHg 62%
    23:00 +18°C° 0 mm 3 mps 761 mmHg 64%

    Tomorrow, 25 August, Sunday

    Time Temperature Precipitation Wind Pressure Humidity
    00:00 +17°C° 0 mm 3 mps 761 mmHg 67%
    01:00 +17°C° 0 mm 3 mps 761 mmHg 70%
    02:00 +16°C° 0 mm 3 mps 761 mmHg 72%
    03:00 +16°C° 0 mm 3 mps 761 mmHg 74%
    04:00 +16°C° 0 mm 3 mps 761 mmHg 76%
    05:00 +16°C° 0 mm 3 mps 761 mmHg 73%
    06:00 +17°C° 0 mm 3 mps 761 mmHg 70%
    07:00 +18°C° 0 mm 4 mps 761 mmHg 67%
    08:00 +20°C° 0 mm 4 mps 761 mmHg 61%
    09:00 +22°C° 0 mm 4 mps 761 mmHg 54%
    10:00 +25°C° 0 mm 5 mps 761 mmHg 48%
    11:00 +26°C° 0 mm 5 mps 760 mmHg 46%
    12:00 +27°C° 0 mm 5 mps 760 mmHg 44%
    13:00 +28°C° 0 mm 5 mps 760 mmHg 42%
    14:00 +28°C° 0 mm 5 mps 759 mmHg 42%
    15:00 +28°C° 0 mm 5 mps 759 mmHg 43%
    16:00 +28°C° 0 mm 5 mps 759 mmHg 44%
    17:00 +26°C° 0 mm 4 mps 759 mmHg 49%
    18:00 +23°C° 0 mm 4 mps 759 mmHg 54%
    19:00 +21°C° 0 mm 3 mps 759 mmHg 60%
    20:00 +21°C° 0 mm 3 mps 759 mmHg 62%
    21:00 +20°C° 0 mm 3 mps 759 mmHg 65%
    22:00 +20°C° 0 mm 3 mps 760 mmHg 68%
    23:00 +19°C° 0 mm 3 mps 759 mmHg 70%

    Day after tomorrow, 26 August, Monday

    Time Temperature Precipitation Wind Pressure Humidity
    00:00 +19°C° 0 mm 3 mps 759 mmHg 72%
    01:00 +19°C° 0 mm 3 mps 759 mmHg 74%
    02:00 +18°C° 0 mm 3 mps 759 mmHg 74%
    03:00 +18°C° 0 mm 3 mps 759 mmHg 75%
    04:00 +18°C° 0 mm 3 mps 759 mmHg 75%
    05:00 +19°C° 0 mm 4 mps 759 mmHg 73%
    06:00 +19°C° 0 mm 4 mps 759 mmHg 70%
    07:00 +20°C° 0 mm 4 mps 759 mmHg 68%
    08:00 +22°C° 0 mm 4 mps 759 mmHg 63%
    09:00 +23°C° 0 mm 4 mps 759 mmHg 58%
    10:00 +26°C° 0 mm 4 mps 759 mmHg 53%
    11:00 +27°C° 0 mm 4 mps 758 mmHg 50%
    12:00 +28°C° 0 mm 5 mps 758 mmHg 48%
    13:00 +29°C° 0 mm 5 mps 758 mmHg 45%
    14:00 +30°C° 0 mm 5 mps 758 mmHg 46%
    15:00 +30°C° 0 mm 5 mps 757 mmHg 46%
    16:00 +30°C° 0 mm 4 mps 757 mmHg 46%
    17:00 +28°C° 0 mm 4 mps 757 mmHg 52%
    18:00 +26°C° 0 mm 4 mps 757 mmHg 58%
    19:00 +25°C° 0 mm 3 mps 757 mmHg 64%
    20:00 +24°C° 0 mm 3 mps 757 mmHg 67%
    21:00 +22°C° 0 mm 3 mps 758 mmHg 70%
    22:00 +22°C° 0 mm 3 mps 758 mmHg 72%
    23:00 +21°C° 0 mm 3 mps 758 mmHg 73%

    27 August, Tuesday

    Time Temperature Precipitation Wind Pressure Humidity
    00:00 +21°C° 0 mm 3 mps 758 mmHg 75%
    01:00 +20°C° 0 mm 3 mps 757 mmHg 76%
    02:00 +20°C° 0 mm 3 mps 758 mmHg 76%
    03:00 +19°C° 0 mm 3 mps 758 mmHg 77%
    04:00 +19°C° 0 mm 3 mps 758 mmHg 77%
    05:00 +20°C° 0 mm 3 mps 758 mmHg 75%
    06:00 +21°C° 0 mm 4 mps 758 mmHg 72%
    07:00 +22°C° 0 mm 4 mps 758 mmHg 69%
    08:00 +23°C° 0 mm 4 mps 758 mmHg 62%
    09:00 +26°C° 0 mm 5 mps 758 mmHg 56%
    10:00 +28°C° 0 mm 5 mps 758 mmHg 50%
    11:00 +29°C° 0 mm 5 mps 758 mmHg 47%
    12:00 +30°C° 0 mm 5 mps 758 mmHg 44%
    13:00 +32°C° 0 mm 5 mps 758 mmHg 41%
    14:00 +32°C° 0 mm 5 mps 758 mmHg 42%
    15:00 +32°C° 0 mm 5 mps 757 mmHg 43%
    16:00 +32°C° 0 mm 4 mps 757 mmHg 44%
    17:00 +29°C° 0 mm 4 mps 757 mmHg 50%
    18:00 +27°C° 0 mm 4 mps 757 mmHg 56%
    19:00 +25°C° 0 mm 3 mps 757 mmHg 62%
    20:00 +25°C° 0 mm 3 mps 757 mmHg 64%
    21:00 +23°C° 0 mm 4 mps 758 mmHg 66%
    22:00 +22°C° 0 mm 4 mps 758 mmHg 68%
    23:00 +21°C° 0 mm 4 mps 758 mmHg 70%

    28 August, Wednesday

    Time Temperature Precipitation Wind Pressure Humidity
    00:00 +21°C° 0 mm 4 mps 758 mmHg 71%
    01:00 +20°C° 0 mm 4 mps 758 mmHg 73%
    02:00 +20°C° 0 mm 4 mps 757 mmHg 75%
    03:00 +19°C° 0 mm 4 mps 757 mmHg 77%
    04:00 +19°C° 0 mm 4 mps 757 mmHg 78%
    05:00 +20°C° 0 mm 4 mps 757 mmHg 75%
    06:00 +21°C° 0 mm 4 mps 757 mmHg 72%
    07:00 +21°C° 0 mm 5 mps 757 mmHg 68%
    08:00 +23°C° 0 mm 5 mps 757 mmHg 62%
    09:00 +26°C° 0 mm 5 mps 757 mmHg 56%
    10:00 +28°C° 0 mm 5 mps 757 mmHg 50%
    11:00 +29°C° 0 mm 5 mps 757 mmHg 46%
    12:00 +32°C° 0 mm 5 mps 756 mmHg 43%
    13:00 +33°C° 0 mm 5 mps 756 mmHg 39%
    14:00 +33°C° 0 mm 5 mps 756 mmHg 40%
    15:00 +33°C° 0 mm 5 mps 755 mmHg 40%
    16:00 +32°C° 0 mm 5 mps 755 mmHg 41%
    17:00 +30°C° 0 mm 5 mps 755 mmHg 46%
    18:00 +28°C° 0 mm 5 mps 755 mmHg 51%
    19:00 +26°C° 0 mm 5 mps 755 mmHg 56%
    20:00 +26°C° 0 mm 5 mps 755 mmHg 58%
    21:00 +25°C° 0 mm 5 mps 755 mmHg 61%
    22:00 +23°C° 0 mm 5 mps 755 mmHg 63%
    23:00 +23°C° 0.2 mm 4 mps 755 mmHg 65%

    29 August, Thursday

    Time Temperature Precipitation Wind Pressure Humidity
    00:00 +22°C° 0.2 mm 4 mps 755 mmHg 67%
    01:00 +21°C° 0.2 mm 4 mps 755 mmHg 69%
    02:00 +21°C° 0.1 mm 4 mps 755 mmHg 70%
    03:00 +20°C° 0.1 mm 4 mps 755 mmHg 71%
    04:00 +20°C° 0.1 mm 4 mps 755 mmHg 73%
    05:00 +20°C° 0.1 mm 4 mps 755 mmHg 71%
    06:00 +21°C° 0.1 mm 4 mps 755 mmHg 69%
    07:00 +21°C° 0.1 mm 4 mps 755 mmHg 67%
    08:00 +23°C° 0.3 mm 4 mps 755 mmHg 63%
    09:00 +26°C° 0.3 mm 4 mps 755 mmHg 59%
    10:00 +27°C° 0.3 mm 4 mps 755 mmHg 54%
    11:00 +29°C° 0.3 mm 4 mps 755 mmHg 51%
    12:00 +30°C° 0.3 mm 4 mps 754 mmHg 48%
    13:00 +32°C° 0.3 mm 4 mps 754 mmHg 45%
    14:00 +32°C° 0.1 mm 4 mps 754 mmHg 46%
    15:00 +32°C° 0.1 mm 4 mps 754 mmHg 46%
    16:00 +32°C° 0.1 mm 4 mps 754 mmHg 46%
    17:00 +29°C° 0 mm 4 mps 754 mmHg 51%
    18:00 +27°C° 0 mm 4 mps 754 mmHg 56%
    19:00 +25°C° 0 mm 4 mps 754 mmHg 61%
    20:00 +23°C° 0.2 mm 4 mps 754 mmHg 64%
    21:00 +23°C° 0.2 mm 4 mps 754 mmHg 68%
    22:00 +22°C° 0.2 mm 4 mps 755 mmHg 71%
    23:00 +21°C° 0.5 mm 4 mps 755 mmHg 73%
    Show more